W7REA Weather Reports


Display with metric or nautical units.
time (UTC)temp
F
wind
direction
speed
MPH
gust
MPH
rain 1hr
in
rain 24hr
in
rain mn
in
humidity
%
barometer
mb
20260906220052 100 286 3.0 11.0 0.00 0.00 0.00 10 1012.9
20260906214553 100 201 3.0 12.0 0.00 0.00 0.00 11 1013.0
20260906213046 100 254 1.0 11.0 0.00 0.00 0.00 12 1013.2
20260906211542 100 0 3.0 12.0 0.00 0.00 0.00 11 1013.5
20260906210044 101 0 1.0 6.0 0.00 0.00 0.00 14 1013.5
20260906204551 100 148 1.0 8.0 0.00 0.00 0.00 16 1013.7
20260906203047 99 71 2.0 9.0 0.00 0.00 0.00 16 1013.9
20260906201557 98 174 1.0 5.0 0.00 0.00 0.00 17 1014.4
20260906200050 97 195 3.0 9.0 0.00 0.00 0.00 18 1014.7
20260906194547 96 0 0.0 5.0 0.00 0.00 0.00 19 1014.8
20260906193045 96 200 0.0 6.0 0.00 0.00 0.00 20 1015.2
20260906191543 96 0 1.0 6.0 0.00 0.00 0.00 20 1015.4
20260906190103 95 130 1.0 6.0 0.00 0.00 0.00 21 1015.5
20260906184549 93 199 0.0 5.0 0.00 0.00 0.00 22 1015.8
20260906183056 91 194 1.0 6.0 0.00 0.00 0.00 23 1016.0
20260906181552 90 0 1.0 4.0 0.00 0.00 0.00 25 1016.4
20260906180051 89 214 1.0 6.0 0.00 0.00 0.00 27 1016.7
20260906174549 87 0 0.0 6.0 0.00 0.00 0.00 30 1016.8
20260906173053 85 0 0.0 5.0 0.00 0.00 0.00 33 1017.1
20260906171544 82 192 0.0 5.0 0.00 0.00 0.00 36 1017.2
20260906170041 81 0 0.0 6.0 0.00 0.00 0.00 40 1017.4
20260906164548 79 0 1.0 4.0 0.00 0.00 0.00 42 1017.6
20260906163045 78 145 0.0 4.0 0.00 0.00 0.00 45 1017.9
20260906161540 77 0 0.0 5.0 0.00 0.00 0.00 46 1018.0
20260906160055 76 0 1.0 5.0 0.00 0.00 0.00 50 1018.0
20260906154547 75 360 0.0 6.0 0.00 0.00 0.00 53 1018.1
20260906153042 75 360 0.0 6.0 0.00 0.00 0.00 55 1018.1
20260906151559 74 360 2.0 4.0 0.00 0.00 0.00 57 1018.2
20260906150052 72 0 0.0 6.0 0.00 0.00 0.00 60 1018.4
20260906144545 70 0 0.0 4.0 0.00 0.00 0.00 64 1018.1
20260906143041 68 360 2.0 9.0 0.00 0.00 0.00 65 1018.0
20260906141542 68 360 2.0 10.0 0.00 0.00 0.00 67 1017.8
20260906140052 66 360 3.0 6.0 0.00 0.00 0.00 70 1017.6
20260906134545 64 360 2.0 6.0 0.00 0.00 0.00 72 1017.8
20260906133059 63 360 2.0 5.0 0.00 0.00 0.00 73 1017.5
20260906131600 62 360 1.0 5.0 0.00 0.00 0.00 73 1017.5
20260906130104 63 360 2.0 6.0 0.00 0.00 0.00 72 1017.6
20260906124545 63 360 3.0 10.0 0.00 0.00 0.00 72 1017.3
20260906123045 63 360 1.0 6.0 0.00 0.00 0.00 73 1017.3
20260906121551 63 360 0.0 4.0 0.00 0.00 0.00 72 1017.4
20260906120050 63 360 1.0 6.0 0.00 0.00 0.00 72 1017.3
20260906114545 64 360 1.0 5.0 0.00 0.00 0.00 71 1017.5
20260906113044 64 0 1.0 8.0 0.00 0.00 0.00 71 1017.6
20260906111555 64 0 0.0 9.0 0.00 0.00 0.00 70 1017.8
20260906110057 64 360 2.0 6.0 0.00 0.00 0.00 69 1017.6
20260906104544 63 360 0.0 3.0 0.00 0.00 0.00 70 1017.6
20260906103041 63 0 0.0 3.0 0.00 0.00 0.00 69 1017.5
20260906101550 63 0 0.0 3.0 0.00 0.00 0.00 69 1017.4
20260906100049 62 0 1.0 2.0 0.00 0.00 0.00 66 1017.6
20260906094546 62 0 0.0 3.0 0.00 0.00 0.00 63 1017.5
20260906093054 62 0 0.0 0.0 0.00 0.00 0.00 62 1017.4
20260906091551 62 0 0.0 0.0 0.00 0.00 0.00 63 1017.3
20260906090119 62 0 0.0 0.0 0.00 0.00 0.00 59 1017.3
20260906084552 63 0 0.0 0.0 0.00 0.00 0.00 57 1017.3
20260906083043 64 0 0.0 0.0 0.00 0.00 0.00 57 1017.3
20260906081552 64 0 0.0 0.0 0.00 0.00 0.00 54 1017.4
20260906074551 64 0 0.0 0.0 0.00 0.00 0.00 54 1017.5
20260906073041 65 0 0.0 0.0 0.00 0.00 0.00 53 1017.7
20260906071540 65 0 0.0 0.0 0.00 0.00 0.00 51 1017.9
20260906070050 66 0 0.0 0.0 0.00 0.00 0.00 53 1017.6
20260906064545 66 0 0.0 0.0 0.00 0.00 0.00 51 1017.8
20260906063042 67 0 0.0 0.0 0.00 0.00 0.00 51 1018.0
20260906061548 67 0 0.0 0.0 0.00 0.00 0.00 49 1018.2
20260906060052 67 0 0.0 0.0 0.00 0.00 0.00 49 1018.2
20260906054546 68 0 0.0 0.0 0.00 0.00 0.00 47 1018.4
20260906053057 68 0 0.0 0.0 0.00 0.00 0.00 46 1018.3
20260906051541 69 0 0.0 0.0 0.00 0.00 0.00 45 1018.4
20260906050050 70 0 0.0 0.0 0.00 0.00 0.00 44 1018.5
20260906044545 70 0 0.0 0.0 0.00 0.00 0.00 43 1018.5
20260906043040 71 0 0.0 0.0 0.00 0.00 0.00 42 1018.6
20260906041556 72 0 0.0 1.0 0.00 0.00 0.00 41 1018.5
20260906040048 73 0 0.0 0.0 0.00 0.00 0.00 39 1018.4
20260906034544 74 0 0.0 2.0 0.00 0.00 0.00 38 1018.4
20260906033045 74 0 0.0 2.0 0.00 0.00 0.00 37 1018.4
20260906031548 75 0 0.0 1.0 0.00 0.00 0.00 35 1018.3
20260906030050 75 0 0.0 1.0 0.00 0.00 0.00 34 1018.1
20260906024600 76 0 0.0 0.0 0.00 0.00 0.00 32 1017.9
20260906023100 77 0 0.0 4.0 0.00 0.00 0.00 30 1017.8
20260906021552 78 0 0.0 3.0 0.00 0.00 0.00 29 1017.7
20260906020042 79 360 0.0 4.0 0.00 0.00 0.00 27 1017.6
20260906014551 80 0 0.0 3.0 0.00 0.00 0.00 26 1017.4
20260906013046 82 0 0.0 2.0 0.00 0.00 0.00 24 1017.3
20260906011554 83 0 0.0 1.0 0.00 0.00 0.00 23 1017.1
20260906010105 85 0 0.0 5.0 0.00 0.00 0.00 22 1017.1
20260906004549 86 0 0.0 3.0 0.00 0.00 0.00 22 1017.1
20260906003047 87 0 0.0 2.0 0.00 0.00 0.00 21 1017.1
20260906001559 88 0 0.0 5.0 0.00 0.00 0.00 20 1017.0
20260906000041 90 350 0.0 6.0 0.00 0.00 0.00 20 1016.9
20260905234547 91 206 1.0 5.0 0.00 0.00 0.00 18 1016.8
20260905233046 92 352 1.0 5.0 0.00 0.00 0.00 18 1016.7
20260905231545 92 334 0.0 6.0 0.00 0.00 0.00 18 1016.7
20260905230107 92 349 0.0 3.0 0.00 0.00 0.00 19 1016.7
20260905224549 93 349 0.0 4.0 0.00 0.00 0.00 18 1016.8
20260905223043 92 334 0.0 2.0 0.00 0.00 0.00 18 1016.8
20260905221553 93 0 0.0 4.0 0.00 0.00 0.00 18 1016.9